Location: ????????
(48.4751°N, 37.6926°E)
Time: 12:50:10
(UTC+00:00)

CZ-4C R/B - Pass Details

Date: 20 January 2021
Orbit: 617 x 1385 km, 63.4° (Epoch: 26 February)

Event Time Altitude Azimuth Distance (km) Brightness Sun altitude
Rises 15:23:04 0° 252° (WSW) 3,124 7.3 -12.1°
Reaches altitude 10° 15:25:25 10° 261° (W) 2,293 6.0 -12.4°
Maximum altitude 15:30:19 37° 329° (NNW) 1,310 3.3 -13.2°
Enters shadow 15:36:08 10° 36° (NE) 2,749 4.4 -14.1°
